Sigfox identifier Datetime Temperature Humidity SNR
003BB9C4 2018-10-09 08:30:46 20.9 38 12.5
003BB9C4 2018-10-09 07:23:48 20.9 38 12.4
003BB9C4 2018-10-09 06:16:53 20.8 38 12.4
003BB9C4 2018-10-09 05:09:54 20.8 38 12.5
003BB9C4 2018-10-09 01:49:06 20.8 38 12.3
003BB9C4 2018-10-09 00:42:07 20.9 38 11.9
003BB9C4 2018-10-08 23:35:08 20.8 38 11.6
003BB9C4 2018-10-08 22:28:08 20.8 38 11.9
003BB9C4 2018-10-08 21:21:12 20.8 38 12
003BB9C4 2018-10-08 20:14:12 20.8 38 11.9
003BB9C4 2018-10-08 19:07:15 20.8 38 12
003BB9C4 2018-10-08 18:00:15 20.7 38 12.5
003BB9C4 2018-10-08 16:53:21 20.6 37 12.3
003BB9C4 2018-10-08 15:46:20 20.6 37 12.8
003BB9C4 2018-10-08 14:39:21 20.6 37 12.8
003BB9C4 2018-10-08 13:32:24 20.5 37 12.7
003BB9C4 2018-10-08 12:25:26 20.4 37 12.8
003BB9C4 2018-10-08 11:18:28 20.4 37 12.9
003BB9C4 2018-10-08 10:11:29 20.4 37 12.9
003BB9C4 2018-10-08 09:04:23 20.4 38 12.6
003BB9C4 2018-10-08 07:57:24 20.4 38 12.7
003BB9C4 2018-10-08 06:50:24 20.4 38 12.7
003BB9C4 2018-10-08 05:43:24 20.4 38 12.9
003BB9C4 2018-10-08 04:36:24 20.4 38 12.4
003BB9C4 2018-10-08 03:29:27 20.4 39 12.3
003BB9C4 2018-10-08 02:22:27 20.5 39 12.3
003BB9C4 2018-10-08 01:15:29 20.5 39 12.1
003BB9C4 2018-10-08 00:08:31 20.6 39 12.2
003BB9C4 2018-10-07 23:01:33 20.6 39 12.7
003BB9C4 2018-10-07 21:54:33 20.6 39 12.7
003BB9C4 2018-10-07 20:47:32 20.6 40 12.9
003BB9C4 2018-10-07 19:40:31 20.6 40 13.4
003BB9C4 2018-10-07 18:33:31 20.6 40 13.1
003BB9C4 2018-10-07 17:26:29 20.6 40 13.2
003BB9C4 2018-10-07 16:19:27 20.6 40 13.8
003BB9C4 2018-10-07 15:12:25 20.6 40 13.8
003BB9C4 2018-10-07 14:05:23 20.6 40 13.3
003BB9C4 2018-10-07 12:58:21 20.6 40 13.4
003BB9C4 2018-10-07 11:51:16 20.6 40 13
003BB9C4 2018-10-07 10:44:12 20.6 40 13.4
003BB9C4 2018-10-07 09:37:12 20.6 40 14
003BB9C4 2018-10-07 08:30:10 20.7 40 13.9
003BB9C4 2018-10-07 07:23:07 20.6 40 14.1
003BB9C4 2018-10-07 06:16:07 20.7 40 14.2
003BB9C4 2018-10-07 05:09:06 20.8 40 14.3
003BB9C4 2018-10-07 04:02:05 20.8 41 14.6
003BB9C4 2018-10-07 02:55:02 20.8 41 14.7
003BB9C4 2018-10-07 01:48:00 20.8 41 14.7
003BB9C4 2018-10-07 00:40:57 20.8 41 14.8
003BB9C4 2018-10-06 23:33:56 20.8 41 15
003BB9C4 2018-10-06 22:26:54 20.8 41 15.1
003BB9C4 2018-10-06 21:19:54 20.8 41 15.2
003BB9C4 2018-10-06 20:12:49 20.8 41 15.1
003BB9C4 2018-10-06 19:05:47 20.8 41 14.8
003BB9C4 2018-10-06 17:58:44 20.9 41 15
003BB9C4 2018-10-06 16:51:41 20.8 41 14.9
003BB9C4 2018-10-06 15:44:40 20.9 41 14.7
003BB9C4 2018-10-06 14:37:38 20.8 41 14.7
003BB9C4 2018-10-06 13:30:34 20.9 41 14.8
003BB9C4 2018-10-06 12:23:32 20.8 41 14.4
003BB9C4 2018-10-06 11:16:31 21 41 14.5
003BB9C4 2018-10-06 10:09:30 21 42 14.7
003BB9C4 2018-10-06 09:02:24 21 42 14.8
003BB9C4 2018-10-06 07:55:20 21 42 14.9
003BB9C4 2018-10-06 06:48:14 21 42 14.6
003BB9C4 2018-10-06 05:41:13 21.1 42 14.1
003BB9C4 2018-10-06 04:34:11 21.2 42 14.3
003BB9C4 2018-10-06 03:27:10 21.2 42 14
003BB9C4 2018-10-06 02:20:07 21.2 43 14
003BB9C4 2018-10-06 01:13:02 21.2 43 14.2
003BB9C4 2018-10-06 00:05:58 21.3 43 13.4
003BB9C4 2018-10-05 22:58:50 21.3 43 13.5
003BB9C4 2018-10-05 21:51:44 21.4 43 13.7
003BB9C4 2018-10-05 20:44:38 21.4 44 13.5
003BB9C4 2018-10-05 19:37:34 21.4 44 13.3
003BB9C4 2018-10-05 18:30:29 21.4 44 13.4
003BB9C4 2018-10-05 17:23:25 21.4 45 12.4
003BB9C4 2018-10-05 16:16:20 21.3 45 12.8
003BB9C4 2018-10-05 15:09:17 21.2 48 13.4
003BB9C4 2018-10-05 14:02:11 21.2 47 11.4
003BB9C4 2018-10-05 12:55:09 21 48 12.7
003BB9C4 2018-10-05 10:41:05 21 44 9.3
003BB9C4 2018-10-05 09:33:59 20.8 49 0